DW5656 Weather Reports


time (UTC)temp
F
wind
direction
speed
knots
gust
knots
rain 1hr
in
rain 24hr
in
rain mn
in
humidity
%
barometer
mb
20260902140914 100 285 1.7 5.2 0.00 0.00 0.00 37 1016.4
20260902140014 101 199 1.7 4.3 0.00 0.00 0.00 39 1016.5
20260902135114 100 54 1.7 4.3 0.00 0.00 0.00 39 1016.7
20260902134214 100 192 0.9 4.3 0.00 0.00 0.00 40 1016.8
20260902133314 100 226 0.9 4.3 0.00 0.00 0.00 40 1016.7
20260902132414 99 13 0.9 2.6 0.00 0.00 0.00 42 1016.9
20260902131514 97 327 1.7 3.5 0.00 0.00 0.00 43 1017.0
20260902130614 96 338 1.7 4.3 0.00 0.00 0.00 44 1016.9
20260902125735 96 44 1.7 5.2 0.00 0.00 0.00 44 1017.0
20260902124814 96 28 1.7 5.2 0.00 0.00 0.00 45 1017.2
20260902123915 96 84 1.7 4.3 0.00 0.00 0.00 44 1017.2
20260902123014 95 41 2.6 6.1 0.00 0.00 0.00 47 1017.3
20260902122115 94 92 3.5 8.7 0.00 0.00 0.00 47 1017.4
20260902121214 93 46 3.5 8.7 0.00 0.00 0.00 48 1017.4
20260902120314 93 76 4.3 8.7 0.00 0.00 0.00 49 1017.4
20260902115414 93 78 3.5 8.7 0.00 0.00 0.00 49 1017.6
20260902114514 92 52 3.5 8.7 0.00 0.00 0.00 51 1017.6
20260902113614 92 72 4.3 8.7 0.00 0.00 0.00 51 1017.7
20260902112714 91 42 3.5 9.6 0.00 0.00 0.00 52 1017.8
20260902111814 90 69 5.2 9.6 0.00 0.00 0.00 52 1017.9
20260902110914 90 73 5.2 9.6 0.00 0.00 0.00 52 1018.0
20260902110014 90 66 4.3 10.4 0.00 0.00 0.00 53 1017.9
20260902105114 89 65 4.3 9.6 0.00 0.00 0.00 54 1018.1
20260902104213 88 74 3.5 11.3 0.00 0.00 0.00 55 1018.3
20260902103314 88 70 3.5 9.6 0.00 0.00 0.00 56 1018.5
20260902102414 87 85 5.2 8.7 0.00 0.00 0.00 57 1018.4
20260902101513 86 66 4.3 8.7 0.00 0.00 0.00 58 1018.5
20260902100613 86 56 4.3 8.7 0.00 0.00 0.00 57 1018.5
20260902095713 85 67 3.5 10.4 0.00 0.00 0.00 56 1018.5
20260902094813 85 43 2.6 7.8 0.00 0.00 0.00 55 1018.5
20260902093913 84 66 3.5 5.2 0.00 0.00 0.00 53 1018.5
20260902093013 82 24 4.3 7.8 0.00 0.00 0.00 53 1018.5
20260902092113 82 15 3.5 7.0 0.00 0.00 0.00 51 1018.4
20260902091213 81 34 3.5 6.1 0.00 0.00 0.00 52 1018.4
20260902090334 80 37 3.5 7.8 0.00 0.00 0.00 52 1018.4
20260902085413 80 43 3.5 8.7 0.00 0.00 0.00 53 1018.3
20260902084513 79 38 2.6 6.1 0.00 0.00 0.00 54 1018.3
20260902083613 79 42 2.6 5.2 0.00 0.00 0.00 55 1018.5
20260902082734 78 40 4.3 7.8 0.00 0.00 0.00 55 1018.4
20260902081813 77 54 4.3 7.8 0.00 0.00 0.00 56 1018.3
20260902080913 77 49 3.5 7.8 0.00 0.00 0.00 57 1018.4
20260902080013 77 47 3.5 7.8 0.00 0.00 0.00 58 1018.4
20260902075113 76 27 3.5 7.8 0.00 0.00 0.00 59 1018.4
20260902074234 76 39 4.3 7.8 0.00 0.00 0.00 61 1018.3
20260902073313 75 40 3.5 7.0 0.00 0.00 0.00 61 1018.1
20260902072435 75 30 3.5 6.1 0.00 0.00 0.00 62 1018.1
20260902071513 74 44 4.3 8.7 0.00 0.00 0.00 63 1018.0
20260902070613 74 44 3.5 7.8 0.00 0.00 0.00 63 1018.1
20260902065734 74 50 2.6 7.0 0.00 0.00 0.00 63 1018.1
20260902064813 74 34 3.5 7.0 0.00 0.00 0.00 65 1018.1
20260902063934 73 40 4.3 8.7 0.00 0.00 0.00 66 1018.1
20260902063034 73 29 3.5 8.7 0.00 0.00 0.00 67 1018.0
20260902062113 73 12 3.5 7.0 0.00 0.00 0.00 67 1018.0
20260902061213 74 354 3.5 7.0 0.00 0.00 0.00 67 1018.0
20260902060313 75 32 2.6 5.2 0.00 0.00 0.00 67 1017.9
20260902055413 75 14 0.9 3.5 0.00 0.00 0.00 68 1017.9
20260902054513 75 29 0.9 2.6 0.00 0.00 0.00 68 1017.9
20260902053613 74 32 0.0 1.7 0.00 0.00 0.00 68 1017.8
20260902052713 74 31 0.0 0.9 0.00 0.00 0.00 68 1018.0
20260902051813 74 31 1.7 2.6 0.00 0.00 0.00 68 1017.9
20260902050913 74 31 1.7 2.6 0.00 0.00 0.00 68 1017.9
20260902050013 74 29 1.7 3.5 0.00 0.00 0.00 68 1017.8
20260902045113 75 59 1.7 4.3 0.00 0.00 0.00 68 1017.8
20260902044213 75 50 2.6 4.3 0.00 0.00 0.00 68 1017.6
20260902043313 75 6 2.6 4.3 0.00 0.00 0.00 67 1017.6
20260902042413 75 17 1.7 4.3 0.00 0.00 0.00 69 1017.7
20260902041512 74 11 0.0 5.2 0.00 0.00 0.00 72 1017.5
20260902040634 74 216 0.0 0.9 0.00 0.00 0.00 73 1017.6
20260902035712 74 216 0.9 1.7 0.00 0.00 0.00 73 1017.5
20260902034812 74 216 0.9 1.7 0.00 0.00 0.00 73 1017.3
20260902033914 74 216 0.9 2.6 0.00 0.00 0.00 73 1017.2
20260902033012 74 216 0.9 1.7 0.00 0.00 0.00 73 1017.2
20260902032133 74 216 0.9 1.7 0.00 0.00 0.00 73 1017.2
20260902031212 74 223 1.7 4.3 0.00 0.00 0.00 74 1017.4
20260902030313 74 261 0.9 2.6 0.00 0.00 0.00 73 1017.5
20260902025412 74 261 0.9 1.7 0.00 0.00 0.00 73 1017.4
20260902024512 74 261 0.9 1.7 0.00 0.00 0.00 73 1017.5
20260902023633 74 261 1.7 3.5 0.00 0.00 0.00 73 1017.8
20260902022713 74 256 1.7 3.5 0.00 0.00 0.00 73 1017.8
20260902021812 74 258 1.7 3.5 0.00 0.00 0.00 73 1017.7
20260902020912 74 254 0.9 2.6 0.00 0.00 0.00 73 1017.9
20260902020012 75 231 1.7 2.6 0.00 0.00 0.00 72 1017.9
20260902015112 75 227 0.9 3.5 0.00 0.00 0.00 72 1017.8
20260902014212 75 257 0.9 2.6 0.00 0.00 0.00 70 1017.6
20260902013312 75 257 0.9 2.6 0.00 0.00 0.00 69 1017.5
20260902012412 75 245 1.7 4.3 0.00 0.00 0.00 68 1017.6
20260902011512 75 214 1.7 4.3 0.00 0.00 0.00 67 1017.7
20260902010612 75 219 2.6 5.2 0.00 0.00 0.00 67 1017.9
20260902005712 75 225 1.7 7.0 0.00 0.00 0.00 65 1018.0
20260902004812 76 233 1.7 4.3 0.00 0.00 0.00 64 1018.1
20260902003912 76 216 2.6 5.2 0.00 0.00 0.00 63 1018.2
20260902003012 76 219 2.6 6.1 0.00 0.00 0.00 63 1018.0
20260902002112 76 225 2.6 4.3 0.00 0.00 0.00 62 1018.0
20260902001212 76 211 1.7 6.1 0.00 0.00 0.00 61 1018.1
20260902000312 76 214 2.6 4.3 0.00 0.00 0.00 61 1017.9
20260901235412 76 219 2.6 4.3 0.00 0.00 0.00 61 1017.9
20260901234512 76 217 1.7 4.3 0.00 0.00 0.00 61 1018.0
20260901233612 77 249 1.7 4.3 0.00 0.00 0.00 60 1018.0
20260901232712 77 241 2.6 4.3 0.00 0.00 0.00 61 1018.1
20260901231812 77 212 2.6 6.1 0.00 0.00 0.00 60 1018.1
20260901230912 78 230 3.5 7.0 0.00 0.00 0.00 60 1018.2
20260901230012 78 215 3.5 6.1 0.00 0.00 0.00 60 1018.2
20260901225112 78 217 3.5 6.1 0.00 0.00 0.00 61 1018.2
20260901224212 78 222 2.6 6.1 0.00 0.00 0.00 62 1018.1
20260901223333 78 221 2.6 4.3 0.00 0.00 0.00 62 1018.0
20260901222412 78 228 2.6 4.3 0.00 0.00 0.00 63 1018.0
20260901221511 79 227 1.7 4.3 0.00 0.00 0.00 63 1018.0
20260901220612 79 244 1.7 4.3 0.00 0.00 0.00 64 1018.1
20260901215712 79 243 0.9 3.5 0.00 0.00 0.00 64 1018.1
20260901214833 78 237 0.9 2.6 0.00 0.00 0.00 65 1018.1
20260901213911 78 247 2.6 3.5 0.00 0.00 0.00 66 1018.3
20260901213011 78 252 2.6 7.0 0.00 0.00 0.00 66 1018.4
20260901212111 78 220 3.5 5.2 0.00 0.00 0.00 66 1018.2
20260901211211 79 225 3.5 8.7 0.00 0.00 0.00 65 1018.1
20260901210311 80 229 4.3 7.0 0.00 0.00 0.00 64 1017.9
20260901205411 81 229 4.3 12.2 0.00 0.00 0.00 62 1017.8
20260901204511 82 224 4.3 9.6 0.00 0.00 0.00 61 1017.5
20260901203611 83 226 4.3 10.4 0.00 0.00 0.00 61 1017.4
20260901202712 83 229 3.5 9.6 0.00 0.00 0.00 61 1017.1
20260901201811 84 224 3.5 7.0 0.00 0.00 0.00 62 1016.9
20260901200911 85 226 3.5 8.7 0.00 0.00 0.00 60 1016.7
20260901200011 86 222 4.3 8.7 0.00 0.00 0.00 53 1016.6
20260901195111 88 228 4.3 10.4 0.00 0.00 0.00 45 1016.2
20260901193826 90 237 3.5 8.7 0.00 0.00 0.00 41 1015.8
20260901192925 90 247 4.3 8.7 0.00 0.00 0.00 40 1015.5
20260901192026 90 259 3.5 9.6 0.00 0.00 0.00 39 1015.3
20260901191125 91 266 4.3 7.8 0.00 0.00 0.00 39 1015.1
20260901190225 91 263 4.3 9.6 0.00 0.00 0.00 39 1014.9
20260901185325 92 264 4.3 8.7 0.00 0.00 0.00 38 1014.8
20260901184425 92 266 4.3 7.8 0.00 0.00 0.00 38 1014.8
20260901183546 93 268 4.3 9.6 0.00 0.00 0.00 37 1014.7
20260901182625 94 269 6.1 9.6 0.00 0.00 0.00 34 1014.5
20260901181725 94 269 4.3 11.3 0.00 0.00 0.00 31 1014.6
20260901180825 95 269 3.5 10.4 0.00 0.00 0.00 30 1014.4
20260901175946 95 282 2.6 7.8 0.00 0.00 0.00 30 1014.3
20260901175025 95 238 2.6 7.0 0.00 0.00 0.00 35 1014.3
20260901174125 95 205 3.5 7.8 0.00 0.00 0.00 39 1014.3
20260901173226 95 222 4.3 7.8 0.00 0.00 0.00 38 1014.3
20260901172325 96 227 3.5 7.8 0.00 0.00 0.00 38 1014.3
20260901171425 96 245 3.5 5.2 0.00 0.00 0.00 36 1014.4
20260901170546 96 258 4.3 7.8 0.00 0.00 0.00 35 1014.3
20260901165646 96 232 2.6 9.6 0.00 0.00 0.00 35 1014.2
20260901164746 97 239 1.7 5.2 0.00 0.00 0.00 36 1014.2
20260901163825 96 238 2.6 7.0 0.00 0.00 0.00 37 1014.3
20260901162946 96 229 3.5 7.8 0.00 0.00 0.00 37 1014.4
20260901162025 96 217 3.5 7.0 0.00 0.00 0.00 37 1014.4
20260901161125 96 243 3.5 7.8 0.00 0.00 0.00 37 1014.4
20260901160225 96 188 3.5 7.8 0.00 0.00 0.00 37 1014.5
20260901155325 95 207 3.5 7.8 0.00 0.00 0.00 38 1014.5
20260901154425 95 200 3.5 7.8 0.00 0.00 0.00 38 1014.6
20260901153525 95 221 5.2 10.4 0.00 0.00 0.00 38 1014.7
20260901152625 94 217 5.2 10.4 0.00 0.00 0.00 38 1014.8
20260901151725 95 221 4.3 9.6 0.00 0.00 0.00 37 1014.9
20260901150825 95 210 3.5 9.6 0.00 0.00 0.00 38 1014.9
20260901145925 95 225 5.2 9.6 0.00 0.00 0.00 39 1014.8
20260901145025 94 212 4.3 12.2 0.00 0.00 0.00 39 1014.9
20260901144146 94 218 4.3 9.6 0.00 0.00 0.00 40 1015.1
20260901143246 93 231 5.2 8.7 0.00 0.00 0.00 42 1015.1
20260901142347 93 245 5.2 10.4 0.00 0.00 0.00 42 1015.2